Location: Düngen
(52.0952°N, 10.0219°E)
Time: 19:44:09
(UTC+00:00)

Meteor 1-11 Rocket - Pass Details

Date: 11 March 2026
Orbit: 831 x 913 km, 81.2° (Epoch: 20 April)

Event Time Altitude Azimuth Distance (km) Brightness Sun altitude
Exits shadow 20:23:40 40° 36° (NE) 1,249 4.5 -28.0°
Drops below altitude 10° 20:27:20 10° 18° (NNE) 2,506 6.3 -28.5°
Sets 20:29:49 0° 16° (NNE) 3,459 7.1 -28.8°
